NAYIF-1 (EO-88) (42017 NORAD) Tracking and Keplerian Element Data

This shows tracking and keplerian element data for the satellite.

Feedback or suggestion? Click here.




ElementValue
Catalog42017
NameNAYIF-1 (EO-88)
Epoch Orbit25556
Epoch Day262.11461325
Epoch Year2021
RAAN328.0295
Inclination97.3084
Eccentricity0.0007277
Argument of Perigee127.6136
Mean Anonmoly232.5765
Mean Motion15.28743743
Decay Rate3.24E-05
L11 42017U 17008BX 21262.11461325 .00003240 00000-0 11854-3 0 9997
L22 42017 97.3084 328.0295 0007277 127.6136 232.5765 15.28743743255562

Live tracking and technical data element details for NAYIF-1 (EO-88) (NORAD 42017). NAYIF-1 (EO-88) can be tracked NOW for your location showing map with azimuth and elevation plus other details from your city location.

Track the satellite on the map from your city or location and see movement details for azimuth, elevation, latitude, longitude, range, height, and movement on the map or in text.







IsCatalogInMostPopularTable: catalog: 42017, numindb: 639
Update: records affected: 1



GetName: 42017 NAYIF-1 (EO-88)

Hit Count: updated at: Sun, 26 Sep 2021 00:27:12 GMT